Regional Weather Roundup
Issued by NWS

Home | Current Version | Previous Version | Text Only | Print | Product List | Glossary On
Versions: 1 2 3 4 5 6 7 8 9 10 11 12 13 14 15 16 17 18 19 20 21 22 23 24 25 26 27 28 29 30 31 32 33 34 35 36 37 38 39 40 41 42 43 44 45 46 47 48 49 50
000
ASHW40 PHFO 280812
RWRHI

WEATHER ROUNDUP FOR HAWAII
NATIONAL WEATHER SERVICE HONOLULU HI
1000 PM HST SUN MAY 27 2018

THIS IS AN AUTOMATED REPORT THAT HAS NOT BEEN QUALITY CONTROLLED.

NOTE..."FAIR" INDICATES FEW OR NO CLOUDS BELOW 12,000 FEET WITH NO
SIGNIFICANT WEATHER AND/OR OBSTRUCTIONS TO VISIBILITY.

* - THESE SITES REPORT LIMITED FIELDS
# - BUOY DATA PROVIDED BY PACIFIC ISLANDS OCEAN OBSERVING SYSTEM.

HIZ001>004-280900-
KAUAI-NIIHAU-

CITY           SKY/WX    TMP DP  RH WIND       PRES   REMARKS
LIHUE APT      CLOUDY    75  70  84 NE13      30.03S
PORT ALLEN*      N/A     73 N/A N/A NE9         N/A
POIPU*           N/A     75 N/A N/A NE7G14      N/A
PRINCEVILLE*     N/A     72 N/A N/A S3          N/A
KOKOLE POINT*  NOT AVBL
MOLOAA DAIRY*    N/A     73  68  83 E3G9        N/A
WAIMEA HTS*    NOT AVBL
PUU OPAE*      NOT AVBL
PUU LUA*       NOT AVBL
MAKAHA RIDGE*  NOT AVBL
$$

HIZ005>011-280900-
OAHU-

CITY           SKY/WX    TMP DP  RH WIND       PRES   REMARKS
HONOLULU       MOCLDY    76  65  68 NE13      30.01R
KALAELOA       CLOUDY    74  65  73 NE3       30.03R
KANEOHE MCB    CLOUDY    76  69  79 E8        30.00R
WHEELER FIELD  MOCLDY    70  64  82 N3        30.02R
BELLOWS*       NOT AVBL
KAHUKU*        NOT AVBL
WHEELER*       NOT AVBL
WAIANAE HARBOR NOT AVBL
DILLINGHAM*    NOT AVBL
KAHUKU TRN*      N/A     72  68  88 W3          N/A
KAWAILOA*        N/A     68  63  83 E6G18       N/A
KII*             N/A     75  68  78 E13         N/A
MAKUA RANGE*     N/A     75  61  60 SE12        N/A
OAHU FOREST NW NOT AVBL
SCHOFIELD BRK*   N/A     70  63  78 SE1         N/A
SCHOFIELD S*   NOT AVBL
WAIANAE VLY*   NOT AVBL
KUAOKALA*      NOT AVBL
HONOULIUULI*   NOT AVBL
MOKUOLOE IS*   NOT AVBL
PALEHUA*       NOT AVBL
WAIAWA PHB*    NOT AVBL
$$

HIZ012>013-280900-
MOLOKAI-

CITY           SKY/WX    TMP DP  RH WIND       PRES   REMARKS
MOLOKAI AIRPT  CLOUDY    75  69  81 N10       30.02R
KALAUPAPA      NOT AVBL
MAKAPULAPAI*   NOT AVBL
MOLOKAI 1*     NOT AVBL
PUU ALII*      NOT AVBL
$$

HIZ016-280900-
KAHOOLAWE-

CITY           SKY/WX    TMP DP  RH WIND       PRES   REMARKS
KAHOOLAWE*     NOT AVBL
HAKIOAWA*      NOT AVBL
HONOKANAIA*    NOT AVBL
KANELOA*         N/A     72  64  78 N9        30.04S
KEALIALALO*    NOT AVBL
LUA MAKIKA*    NOT AVBL
$$

HIZ014>015-280900-
LANAI-

CITY           SKY/WX    TMP DP  RH WIND       PRES   REMARKS
LANAI CITY     FAIR      69  64  84 NE8G21    30.06R
LANAI 1*       NOT AVBL
$$

HIZ017>028-280900-
MAUI-

CITY           SKY/WX    TMP DP  RH WIND       PRES   REMARKS
KAHULUI        PTCLDY    73  68  83 NE12G21   30.00R
KAPALUA-W MAUI NOT AVBL
HANA AIRPORT   NOT AVBL
HANA*            N/A     75 N/A N/A E8          N/A
HALEAKALA SUMM   N/A     52   3  14 NE14        N/A
MAALAEA BAY*   NOT AVBL
HALEAKALA*     NOT AVBL
KAUPO GAP*     NOT AVBL
KULA 1*          N/A     48  45  87 NE3         N/A
$$

HIZ023>026-280900-
BIG ISLAND OF HAWAII COAST AND LOWER SLOPES-

CITY           SKY/WX    TMP DP  RH WIND       PRES   REMARKS
KAILUA KONA    CLOUDY    78  65  63 SE5       29.97R
HILO           PTCLDY    73  70  90 CALM      30.01S
HONOKAA*         N/A     68 N/A N/A VRB1        N/A
KAWAIHAE MWT*    N/A     79 N/A N/A NW6         N/A
KAWAIHAE*      NOT AVBL
SOUTH POINT*     N/A     72 N/A N/A VRB12G20    N/A
UPOLU AIRPORT* NOT AVBL
KAMUELA*       MOSUNNY   63  63 100 NE13      30.08R
HAKALAU*         N/A     52  51  95 SW5         N/A
KALOKO-HONOKO* NOT AVBL
PALI 2*          N/A     64  61  88 N12G18      N/A
KEALAKOMO*       N/A     75  66  73 E12         N/A
KAUPULEHU*     NOT AVBL
KAPAPALA*        N/A     63  62  96 N3          N/A
LOWER KAHUKU*  NOT AVBL
PUHE CS*       NOT AVBL
PUHO CS*       NOT AVBL
PTA KEAMUKU*     N/A     61  55  82 E10         N/A
WAIKOLOA*      NOT AVBL
$$

HIZ027>028-280900-
BIG ISLAND OF HAWAII INTERIOR AND SUMMMITS-

CITY           SKY/WX    TMP DP  RH WIND       PRES   REMARKS
BRADSHAW FIELD NOT AVBL
MK VISITOR CEN   N/A     48  23  37 W1          N/A
MAUNA KEA*       N/A     39   7  26 NE16        N/A
MAUNA LOA*       N/A     50   0  12 MISG        N/A
MAUNA LOA 1*   NOT AVBL
PTA KIPUKA*      N/A     54  54 100 NE3         N/A
PTA RANGE 17*    N/A     64  55  72 W13G24      N/A
PTA WEST*        N/A     70  68  94 N5G12       N/A
NENE CABIN*    NOT AVBL
AHUMOA*        NOT AVBL
PTA PORTABLE*  NOT AVBL
PUU MALI*        N/A     52  43  71 SE3G14      N/A
$$

HIC003-280900-
NORTHWEST ISLANDS-

CITY           SKY/WX    TMP DP  RH WIND       PRES   REMARKS
MIDWAY ISLAND  CLEAR     73  66  78 NE5       30.21R
MIDWAY NOS*    NOT AVBL
FRENCH FRIGATE NOT AVBL
$$

PHZ110>124-180-280900-
BUOY REPORTS

STATION/POSITION TIME  TEMP    WIND        PRES    WAVE   SWELL
                       AIR SEA DIR/SP/G            HT/PER HT/DIR
                 (UTC) (F)     (DEG/KT/KT) (MB)    (FT/S) (FT/D)
BUOY 51101       0750   72 74   60/ 16/ 19 1020.4R   5/10   3
BUOY 51100       NOT AVBL
BUOY 51002       0750   79 80   70/ 16/ 19 1014.3R   7/ 8   5/ 90
BUOY 51003       0750   78 79   60/ 12/ 14 1014.6R   5/ 8   5/ 80
BUOY 51004       0750   77 78   60/ 14/ 17   N/A     6/ 8   5/ 80
WAIMEA BAY#      NOT AVBL
MOKAPU POINT#    0734      77                N/A     5/ 8   2/350
LANAI#           NOT AVBL
BARBERS PT 2#    NOT AVBL
PAUWELA#         0730      76                N/A     5/ 8   2/330
HILO#            0757      78                N/A     5/ 8   2/350
KANEOHE BAY#     0754      77                N/A     5/ 8   2/330
KANEOHE BAY 2#   NOT AVBL
HANALEI#         NOT AVBL
KAHULUI HARBOR   0736   75 78   30/ 11/ 14 1015.8R
HONOLULU HARBOR  0736   76 78  110/  3/  7 1015.8R
PEARL HARBOR#    0730      78                N/A     3/ 5   2/170
KILO NALU        NOT AVBL
HILO HARBOR      0736   75 80  120/  3/  4 1015.9R
MOKUOLOE         0736   75 78   90/  4/  7 1016.4R
NAWILIWILI       0736   76 78   70/ 11/ 15 1016.3F
WHOTS BUOY       NOT AVBL
BUOY 51028       NOT AVBL
$$

......................KEY........................................
  SKY/WX - SKY CONDITIONS/PRESENT WEATHER
  TMP    - TEMPERATURE IN FAHRENHEIT
  DWPT   - DEWPOINT IN FAHRENHEIT
  RH     - RELATIVE HUMIDITY IN PERCENT
  WIND   - DIRECTION AND SPEED /MPH FOR ISLANDS...KTS FOR BUOYS/
  PRES   - MEAN SEA LEVEL PRESSURE IN INCHES OF HG
  VSB    - VISIBILITY IN MILES
  HX     - HEAT INDEX
  WCI    - WIND CHILL INDEX
  VRB    - VARIABLE WIND DIRECTION
  N/A    - NOT AVAILABLE




USA.gov is the U.S. government's official web portal to all federal, state and local government web resources and services.